SCP
2 2 2 2 2 2 2 1 1 1 1 1 1 1 1 0 0 0 0 1 1 0 0 0 0 0 0 0 0 0 0 0 0 0 0 0 0 0 0 0 0 0 0
2 3 3 3 2 2 2 2 1 1 1 1 1 1 0 0 0 1 1 1 1 1 0 0 0 0 0 0 0 0 0 0 0 0 0 0 0 0 0 0 0 0 0
3 3 3 3 3 3 2 2 2 1 1 1 1 1 1 1 1 1 1 1 1 1 1 1 0 0 0 0 0 0 0 0 0 0 0 0 0 0 0 0 0 0 0
3 3 3 4 4 3 3 2 2 1 1 1 1 1 1 1 1 1 1 1 1 1 1 0 0 0 0 0 0 0 0 0 0 0 0 0 0 0 0 0 0 0 0
3 3 4 4 4 3 3 2 2 2 1 1 1 1 1 1 1 1 1 1 0 0 0 0 0 0 0 0 0 0 0 0 0 0 0 0 0 0 0 0 0 0 0
3 3 4 4 4 4 3 3 3 2 2 2 1 1 1 1 1 1 1 1 0 0 0 0 0 0 1 1 0 0 0 0 0 0 0 0 0 0 0 0 0 0 0
3 3 4 4 4 4 3 3 3 2 2 2 1 1 1 1 1 1 1 1 1 0 0 0 0 1 1 1 0 0 0 0 0 0 0 0 0 0 0 0 0 0 0
4 4 4 4 4 3 3 3 3 2 2 2 1 1 1 1 1 1 1 1 1 1 0 0 0 1 1 1 0 0 0 0 0 0 0 0 0 0 0 0 0 0 0
4 4 4 3 3 3 3 3 2 2 2 1 1 1 1 1 1 1 1 1 1 1 1 1 0 0 0 0 0 0 0 0 0 0 0 0 0 0 0 0 0 0 0
5 4 4 3 3 3 2 2 2 2 1 1 1 1 1 1 1 1 1 1 1 1 1 1 1 1 1 0 0 0 0 0 0 0 0 0 0 0 0 0 0 0 0
5 4 4 4 3 3 2 2 2 2 1 1 1 1 1 1 1 1 1 1 1 1 1 1 1 1 1 1 0 0 0 0 0 0 0 0 0 0 0 0 0 0 0
5 4 4 4 4 3 3 2 2 1 1 1 1 1 1 1 1 1 1 1 1 1 1 1 1 1 1 1 0 0 0 0 0 0 0 0 0 0 0 0 0 0 0
5 4 3 4 4 4 3 3 2 2 1 1 1 1 1 1 2 1 1 1 1 1 1 1 1 1 1 0 0 0 0 0 0 0 0 0 0 0 0 0 0 0 0
4 4 3 4 4 4 4 3 2 2 1 1 1 1 1 1 1 1 1 1 1 1 1 1 1 1 1 0 0 0 0 0 0 0 0 0 0 0 0 0 0 0 0
4 4 4 4 5 4 4 3 3 2 1 1 1 1 1 1 1 1 1 1 1 1 1 1 1 0 0 0 1 1 0 0 0 0 0 0 1 1 0 0 0 0 0
4 4 4 5 5 4 4 3 3 2 2 1 1 1 1 1 1 1 1 1 1 1 1 1 1 0 0 0 1 1 1 0 0 0 0 0 0 1 1 1 1 1 1
4 4 4 4 4 4 3 3 3 3 2 1 1 1 1 1 1 1 1 1 1 0 0 0 0 0 0 0 1 1 1 1 1 0 0 0 0 0 0 1 1 1 1
3 3 4 4 4 4 3 3 4 3 2 1 1 1 1 1 1 1 1 1 1 1 0 0 0 0 0 0 1 1 1 1 1 1 1 1 1 0 0 0 1 1 1
3 3 3 4 4 4 4 4 4 3 3 2 1 1 1 1 1 1 1 1 1 1 1 0 0 0 0 0 0 0 0 0 0 0 1 1 1 1 0 0 1 1 0
3 3 3 4 5 4 4 4 3 3 2 2 1 1 1 1 1 1 1 1 1 1 1 1 1 0 0 0 0 0 0 0 0 0 0 0 1 1 0 0 0 1 1
3 3 4 4 5 4 3 3 3 3 2 2 1 1 1 1 1 1 1 1 1 1 1 1 1 1 1 0 0 0 0 0 0 0 0 0 0 0 0 0 0 0 0
4 4 4 4 4 3 2 2 2 2 2 2 1 1 1 1 1 1 1 1 1 1 1 1 1 1 1 1 0 0 0 0 0 0 0 0 0 0 0 0 0 0 0
3 3 3 3 2 2 1 2 2 2 2 2 1 1 1 1 1 1 0 0 0 1 1 1 1 1 1 1 0 0 0 0 0 0 0 0 0 0 0 0 0 0 0
2 2 2 2 2 1 1 1 1 1 1 1 1 1 1 1 1 1 0 0 0 0 0 0 0 1 1 1 1 0 0 0 0 0 0 0 0 0 0 0 0 0 0
2 2 2 2 2 2 2 1 1 1 1 1 1 1 1 1 1 1 1 0 0 0 0 0 0 1 1 1 1 1 0 0 0 0 0 0 0 0 0 0 0 0 0
2 2 2 2 1 2 2 2 1 1 1 1 1 1 1 1 1 1 1 0 0 0 0 0 0 0 1 1 1 1 1 0 0 0 0 0 0 0 0 0 0 0 0
Wind_Speed
11 13 14 14 14 14 14 14 14 14 13 13 13 14 14 13 13 13 13 13 12 12 13 13 13 13 14 14 14 14 14 14 14 14 14 14 14 14 14 12 12 9 14
15 15 15 15 15 15 15 14 14 13 13 13 13 13 13 13 13 13 13 13 12 13 13 13 13 13 13 13 13 13 12 11 11 11 11 12 13 14 14 14 13 9 13
16 16 15 15 15 15 15 15 14 13 13 13 13 13 13 12 12 12 12 12 12 12 13 13 13 13 13 13 12 11 10 8 7 6 7 5 8 13 13 13 14 14 13
16 15 14 15 15 15 15 15 14 13 13 13 12 12 12 12 12 12 12 12 12 12 12 12 13 12 12 12 11 10 8 7 6 6 5 6 6 12 13 13 13 13 13
14 13 15 15 16 16 15 15 14 13 13 13 13 12 12 12 12 12 12 12 12 12 12 12 12 12 12 11 10 9 7 7 7 6 6 7 6 11 12 12 12 12 12
13 13 14 16 16 16 15 14 14 13 13 13 12 12 12 12 12 12 12 11 11 11 11 11 12 12 11 10 9 8 7 7 5 5 6 7 6 11 12 12 12 11 11
13 14 14 15 16 15 15 14 14 13 13 12 12 12 12 12 12 12 11 11 11 11 11 11 11 11 10 9 8 7 7 7 4 5 7 6 7 11 11 11 11 11 11
13 14 13 15 15 15 15 14 13 12 12 12 12 11 11 11 12 11 11 11 10 11 10 10 10 10 9 8 7 6 6 6 5 7 7 6 8 11 11 11 11 11 11
12 12 11 11 12 14 14 13 13 12 12 12 11 11 11 11 11 11 10 10 10 10 9 9 9 9 8 8 6 5 6 6 4 4 7 5 8 10 10 10 11 11 11
10 11 10 10 10 9 9 12 12 12 11 11 11 10 10 10 10 9 9 9 9 9 9 9 9 8 7 6 5 4 4 5 4 6 5 5 9 10 10 10 10 10 10
9 9 9 9 9 9 8 11 10 10 10 10 9 9 8 5 5 6 7 8 8 8 8 8 7 7 6 4 3 3 3 2 5 5 4 7 9 9 9 9 8 8 8
9 9 8 9 9 8 8 7 6 6 6 6 6 6 4 4 4 5 7 8 7 7 7 6 5 4 3 1 1 1 1 2 4 4 4 8 8 8 8 8 8 8 8
9 8 8 8 8 8 6 6 4 3 4 4 6 5 4 3 4 4 3 4 4 4 3 3 2 1 1 1 1 1 1 3 3 3 4 8 8 7 7 7 7 7 7
9 9 8 7 7 7 6 5 4 3 3 3 4 4 3 2 3 3 3 3 3 2 2 2 1 1 1 1 2 2 2 2 3 3 4 8 7 6 6 6 6 6 6
9 8 8 8 7 6 5 4 4 4 4 4 3 3 3 3 3 3 2 2 2 2 2 1 1 2 1 1 1 2 2 2 3 3 3 7 6 5 5 5 5 5 5
9 8 7 8 8 7 5 4 4 4 3 3 3 3 3 3 3 2 3 2 2 2 2 1 1 2 1 1 1 2 2 2 3 3 3 4 5 4 4 4 4 5 5
10 9 8 7 7 7 6 5 4 4 4 3 3 3 3 3 3 3 3 2 2 2 2 1 2 2 1 2 1 1 2 2 2 3 3 3 2 3 3 3 4 5 5
9 9 8 7 7 7 6 5 4 4 4 3 3 3 3 3 3 3 3 2 2 2 2 1 1 1 1 1 1 0 1 1 1 1 2 2 2 1 1 2 3 4 5
10 9 9 8 7 7 6 5 4 4 4 3 3 2 3 3 3 3 3 2 3 2 2 1 1 1 1 1 0 0 1 1 0 1 2 2 2 1 1 0 1 3 4
9 9 9 8 7 7 5 4 4 4 3 3 3 3 3 3 3 3 3 3 3 2 2 2 2 1 1 1 1 1 0 0 0 1 1 1 1 1 1 0 0 1 3
9 10 10 9 8 7 5 5 4 4 3 3 3 4 3 3 3 3 2 3 2 2 2 3 2 2 1 1 1 1 1 1 0 0 1 1 0 0 1 1 0 0 1
9 9 9 9 8 7 5 4 4 4 3 2 2 3 3 3 3 2 3 2 2 2 2 2 2 2 1 1 1 1 0 2 1 1 0 0 0 0 0 1 0 0 0
8 9 8 8 8 7 7 5 5 3 3 2 2 2 3 3 3 3 3 2 2 2 2 3 3 3 2 1 1 2 1 2 1 1 1 0 0 1 1 1 1 1 0
7 6 7 8 8 7 7 7 7 6 5 4 3 3 3 3 3 3 3 3 2 2 2 2 3 2 3 2 1 1 1 2 1 1 2 1 1 1 2 2 1 1 1
7 6 6 7 7 7 7 7 6 5 4 4 4 5 4 3 3 3 2 2 2 2 2 2 2 2 2 2 2 1 1 0 1 1 2 2 2 2 2 2 2 2 1
6 6 6 7 6 7 7 6 6 6 6 6 5 5 4 3 3 3 3 2 2 2 2 2 2 2 2 2 1 1 1 1 1 1 2 2 3 3 3 2 2 2 1
Wind_Direction
126 133 137 133 131 128 126 123 119 116 112 109 106 103 99 95 93 92 91 89 87 87 87 85 83 85 84 81 79 79 77 77 78 78 75 71 68 65 63 64 65 64 66
129 134 137 134 132 130 127 124 121 118 115 112 109 106 103 99 96 93 92 91 89 88 88 86 84 84 83 83 81 81 80 80 82 84 83 75 70 66 64 63 64 65 66
128 134 137 133 132 130 128 125 123 121 117 114 111 107 105 102 99 96 93 92 90 89 87 87 87 85 83 82 81 80 79 75 69 73 84 82 73 69 68 66 64 64 64
128 135 138 133 130 129 128 128 126 123 119 117 113 110 107 104 101 98 96 94 91 89 88 87 88 86 85 83 81 77 70 55 44 52 68 74 73 72 69 66 64 64 62
129 133 132 134 132 130 130 129 128 125 122 119 116 113 109 105 102 99 97 95 94 92 90 88 89 87 86 84 81 73 58 42 42 54 67 70 68 71 69 67 66 64 62
128 127 133 136 134 132 131 129 128 127 126 123 120 117 112 108 104 100 98 97 96 95 92 90 90 87 85 82 77 67 48 33 39 63 67 69 65 71 70 67 64 63 60
127 127 136 135 135 134 133 132 130 129 129 126 123 120 116 112 107 102 100 100 99 97 94 93 91 89 86 80 74 60 33 18 54 71 71 67 67 72 68 63 61 61 58
125 130 136 135 135 136 136 135 133 131 129 126 124 122 118 114 111 106 103 103 100 97 95 95 95 93 88 81 71 51 27 21 48 79 80 70 72 72 68 62 60 58 55
124 131 138 139 138 136 135 135 134 131 128 126 123 121 117 115 114 110 107 106 104 101 97 96 97 94 90 82 68 42 23 17 35 71 80 70 71 72 68 63 60 57 54
127 133 141 142 142 140 135 134 133 132 130 127 124 122 120 117 116 114 110 107 106 105 103 101 99 95 91 83 67 36 14 8 55 69 69 69 70 72 69 66 60 57 55
132 138 145 144 142 140 139 139 136 134 134 132 129 132 133 134 129 122 117 115 114 113 112 110 110 108 103 91 70 28 3 43 72 74 68 74 73 71 68 66 61 56 52
145 145 144 143 141 139 141 142 148 147 147 151 150 155 155 137 128 125 123 123 121 119 120 123 128 135 134 134 120 25 27 69 74 80 76 78 74 71 70 67 61 55 50
151 146 145 143 142 140 140 146 148 148 154 158 154 154 144 135 130 127 129 128 133 138 138 142 152 167 140 121 121 92 58 75 78 81 83 83 78 75 71 68 61 54 46
152 149 147 143 142 143 141 144 143 143 148 146 151 156 145 139 136 139 141 151 154 151 142 147 158 140 117 108 107 94 70 73 85 91 92 90 80 74 73 66 56 47 41
155 152 152 148 144 142 138 144 141 140 143 141 139 148 135 134 137 135 140 139 139 131 136 144 143 115 89 73 77 92 96 97 99 97 94 91 84 75 65 53 43 35 31
159 156 152 150 147 143 140 140 136 134 129 127 131 137 133 130 130 133 125 127 125 127 133 139 130 116 109 87 71 78 90 100 110 115 118 100 91 82 60 40 30 25 20
161 158 155 155 150 147 144 140 131 132 126 125 133 139 132 123 125 123 119 122 122 117 116 108 92 85 89 83 62 50 65 68 95 114 123 124 109 80 60 35 21 15 7
157 156 154 157 155 148 143 140 134 133 128 130 133 135 136 134 130 122 119 123 120 113 107 109 111 98 90 97 88 60 79 67 81 118 114 120 120 108 69 34 12 0 353
157 154 154 157 158 149 143 138 133 129 128 131 126 124 129 127 127 123 128 132 126 125 130 129 114 124 113 93 84 71 82 121 168 132 123 124 126 123 126 87 351 341 341
154 154 156 157 156 146 141 133 121 120 123 123 126 129 125 124 126 124 129 135 133 130 126 121 116 88 103 115 71 41 2 179 163 141 144 121 139 151 143 166 250 318 334
155 157 160 160 158 153 151 148 141 142 138 131 131 131 132 128 130 129 134 139 138 143 152 144 128 110 100 101 84 6 319 292 174 113 74 75 102 175 187 214 183 160 321
162 162 163 162 160 157 155 153 144 136 136 136 132 134 137 135 135 140 132 137 144 142 142 146 133 131 146 126 128 132 314 318 318 327 283 180 299 342 306 283 237 227 221
162 164 165 160 157 152 147 136 128 119 121 129 144 150 149 146 144 137 140 138 144 150 164 167 154 151 168 204 144 142 154 225 279 284 253 249 275 333 307 302 289 281 275
159 155 155 155 154 152 151 152 155 160 164 169 162 155 145 142 138 136 144 150 154 155 163 175 166 165 157 184 218 203 178 158 154 291 306 290 303 292 281 296 292 274 261
149 153 155 154 154 154 156 158 160 162 158 150 151 149 148 151 149 145 149 152 159 169 170 171 173 172 173 176 176 183 247 306 167 168 266 287 297 276 274 274 274 273 259
143 147 150 152 155 157 160 165 166 164 159 154 153 152 153 152 154 156 159 158 166 169 179 183 182 183 187 177 180 167 162 177 216 200 231 270 277 276 277 271 270 270 285